#timestamp,LO_Frequency,Hit 
1500829215.8,286046150.3,N
1500829235.7,286046150.1,N
1500829255.5,286046151.0,N
1500829275.3,286046151.2,N
1500829295.2,286046150.8,N
1500829315.0,286046151.3,N
1500829315.9,286046151.3,N
1500829335.8,286046150.7,N
1500829355.6,286046150.5,N
1500829375.4,286046151.0,N
1500829395.3,286046150.3,N
1500829415.1,286046151.1,N
1500829435.8,286046151.1,N
1500829455.7,286046148.9,N
1500829475.5,286046151.6,N
1500829495.4,286046151.2,N
1500829515.2,286046151.3,N
1500829535.0,286046150.1,N
1500829535.9,286046150.1,N
1500829555.8,286046150.3,N
1500829575.6,286046152.8,N
1500829595.5,286046152.9,N
1500829615.3,286046150.7,N
1500829635.1,286046150.2,N
1500829655.9,286046150.1,N
1500829675.7,286046152.5,N
1500829695.5,286046152.4,N
1500829715.4,286046153.2,N
1500829735.2,286046150.1,N
1500829755.1,286046152.7,N
1500829756.0,286046152.7,N
1500829775.8,286046153.2,N
1500829795.6,286046151.0,N
1500829815.5,286046150.1,N
1500829835.3,286046152.5,N
1500829855.1,286046154.8,N
1500829875.9,286046154.8,N
1500829895.7,286046154.2,N
1500829915.6,286046154.7,N
1500829935.4,286046152.9,N
1500829955.2,286046152.5,N
1500829975.1,286046152.7,N
1500829976.0,286046152.7,N
1500829995.8,286046152.6,N
1500830015.7,286046152.7,N
1500830035.5,286046152.1,N
1500830055.3,286046152.3,N
1500830075.2,286046154.1,N
1500830095.0,286046154.8,N
1500830095.9,286046154.8,N
1500830115.8,286046151.7,N
1500830135.6,286046152.2,N
1500830155.4,286046153.5,N
1500830175.3,286046153.8,N
1500830195.1,286046156.4,N
1500830215.8,286046153.9,N
1500830235.7,286046153.3,N
1500830255.5,286046153.5,N
1500830275.4,286046156.0,N
1500830295.2,286046156.3,N
1500830315.0,286046156.4,N
1500830315.9,286046156.4,N
1500830335.8,286046156.2,N
1500830355.6,286046156.0,N
1500830375.5,286046156.0,N
1500830395.3,286046156.3,N
1500830415.1,286046155.4,N
1500830435.9,286046155.6,N
1500830455.7,286046155.3,N
1500830475.5,286046155.2,N
1500830495.4,286046155.1,N
1500830515.2,286046155.1,N
1500830535.1,286046156.1,N
1500830536.0,286046156.1,N
1500830555.8,286046155.9,N
1500830575.6,286046155.1,N
1500830595.5,286046155.2,N
1500830615.3,286046155.6,N
1500830635.2,286046157.9,N
1500830655.9,286046155.1,N
1500830675.7,286046155.6,N
1500830695.6,286046155.1,N
1500830715.4,286046155.0,N
1500830735.3,286046154.9,N
1500830755.1,286046155.3,N
1500830756.0,286046155.3,N
1500830775.8,286046155.4,N
1500830795.7,286046155.1,N
1500830815.5,286046155.4,N
1500830835.4,286046156.1,N
1500830855.2,286046155.0,N
1500830875.0,286046154.9,N
1500830875.9,286046154.9,N
1500830895.8,286046155.8,N
1500830915.6,286046155.4,N
1500830935.4,286046154.9,N
1500830955.3,286046157.3,N
1500830975.1,286046156.7,N
1500830995.9,286046156.5,N
1500831015.7,286046156.8,N
1500831035.5,286046157.0,N
1500831055.4,286046159.6,N
1500831075.2,286046159.6,N
1500831095.1,286046156.6,N
1500831096.0,286046156.6,N
1500831115.8,286046156.7,N
1500831135.6,286046157.4,N
1500831155.5,286046157.8,N
1500831175.3,286046157.2,N
1500831195.2,286046156.8,N
1500831215.9,286046156.6,N
1500831235.7,286046159.6,N
1500831255.6,286046158.1,N
1500831275.4,286046157.1,N
1500831295.2,286046159.0,N
1500831315.1,286046159.6,N
1500831316.0,286046159.6,N
1500831335.8,286046159.3,N
1500831355.7,286046158.7,N
1500831375.5,286046158.7,N
1500831395.3,286046158.7,N
1500831415.2,286046159.5,N
1500831435.0,286046156.9,N
1500831435.9,286046156.9,N
1500831455.8,286046159.6,N
1500831475.6,286046159.6,N
1500831495.4,286046159.0,N
1500831515.3,286046159.0,N
1500831535.1,286046156.5,N
1500831555.8,286046159.6,N
1500831575.7,286046159.3,N
1500831595.5,286046159.1,N
1500831615.4,286046158.6,N
1500831635.2,286046158.9,N
1500831655.0,286046159.3,N
1500831655.9,286046159.3,N
1500831675.8,286046158.1,N
1500831695.6,286046158.1,N
1500831715.5,286046158.9,N
1500831735.3,286046158.5,N
1500831755.1,286046158.8,N
1500831775.9,286046158.4,N
1500831795.7,286046158.3,N
1500831815.6,286046158.1,N
1500831835.4,286046159.0,N
1500831855.2,286046158.6,N
1500831875.1,286046160.7,N
1500831876.0,286046160.7,N
1500831895.8,286046158.3,N
1500831915.7,286046160.9,N
1500831935.5,286046158.3,N
1500831955.3,286046158.5,N
1500831975.2,286046158.4,N
1500831995.0,286046158.3,N
1500831995.9,286046158.3,N
1500832015.8,286046158.6,N
1500832035.6,286046158.3,N
1500832055.4,286046158.5,N
1500832075.3,286046158.6,N
1500832095.1,286046159.8,N
1500832115.8,286046159.7,N
1500832135.7,286046160.1,N
1500832155.5,286046159.8,N
1500832175.4,286046160.9,N
1500832195.2,286046160.5,N
1500832215.0,286046162.3,N
1500832215.9,286046162.3,N
1500832235.8,286046159.7,N
1500832255.6,286046162.0,N
1500832275.5,286046162.2,N
1500832295.3,286046162.3,N
1500832315.1,286046162.7,N
1500832335.9,286046162.4,N
1500832355.7,286046161.0,N
1500832375.6,286046159.8,N
1500832395.4,286046159.7,N
1500832415.2,286046159.7,N
1500832435.1,286046160.1,N
1500832436.0,286046160.1,N
1500832455.8,286046160.0,N
1500832475.6,286046160.1,N
1500832495.5,286046162.8,N
1500832515.3,286046162.3,N
1500832535.2,286046162.4,N
1500832555.9,286046159.8,N
1500832575.7,286046161.3,N
1500832595.6,286046162.2,N
1500832615.4,286046162.0,N
1500832635.3,286046161.6,N
1500832655.1,286046161.9,N
1500832656.0,286046161.9,N
1500832675.8,286046161.5,N
1500832695.7,286046164.3,N
1500832715.5,286046162.5,N
1500832735.4,286046161.8,N
1500832755.2,286046161.5,N
1500832775.0,286046161.4,N
1500832775.9,286046161.4,N
1500832795.8,286046163.2,N
